カタログに戻る

STARLINK-35851

運用中通信VLEO
NORAD 66356·PAYLOAD·🇺🇸 United States

打ち上げ Nov 6, 2025 から Vandenberg Space Force Base

Loading…

次のパス (今後24時間)

TLE

最新Source: CelesTrak SupGP

元期: Sep 14, 2026, 23:14 UTC

1 66356C 25254J   26257.96854167  .00039832  00000+0  11770-2 0  2571
2 66356  53.1574  71.2716 0001053  78.1534 271.5799 15.34366944    10

AllMySatでSTARLINK-35851をリアルタイム追跡

Download on the App Store